• In India
  • List of Countries
  • For 7 days
  • Water Temperature
  • Satellite Maps
  • Weather Map
  • Weather Widgets
  • user-avatar
    Login

    Hourly Weather Sevan

    Today, 26 September, Tuesday

    Time Temperature Precipitation Wind Pressure Humidity
    00:00 +14°C° 0 mm 2 mps 644 mmHg 73%
    01:00 +14°C° 0 mm 2 mps 644 mmHg 74%
    02:00 +14°C° 0 mm 2 mps 644 mmHg 76%
    03:00 +13°C° 0 mm 1 mps 644 mmHg 77%
    04:00 +13°C° 0 mm 1 mps 643 mmHg 78%
    05:00 +12°C° 0 mm 1 mps 643 mmHg 78%
    06:00 +12°C° 0 mm 1 mps 643 mmHg 78%
    07:00 +14°C° 0 mm 1 mps 643 mmHg 68%
    08:00 +18°C° 0 mm 1 mps 644 mmHg 57%
    09:00 +19°C° 0 mm 2 mps 645 mmHg 44%
    10:00 +20°C° 0 mm 2 mps 645 mmHg 39%
    11:00 +21°C° 0 mm 2 mps 645 mmHg 35%
    12:00 +24°C° 0 mm 2 mps 645 mmHg 30%
    13:00 +24°C° 0 mm 2 mps 645 mmHg 29%
    14:00 +24°C° 0 mm 2 mps 644 mmHg 28%
    15:00 +23°C° 0 mm 2 mps 644 mmHg 31%
    16:00 +20°C° 0 mm 2 mps 644 mmHg 36%
    17:00 +20°C° 0 mm 1 mps 643 mmHg 42%
    18:00 +18°C° 0 mm 1 mps 643 mmHg 47%
    19:00 +18°C° 0 mm 1 mps 643 mmHg 53%
    20:00 +16°C° 0 mm 2 mps 643 mmHg 59%
    21:00 +16°C° 0 mm 2 mps 643 mmHg 64%
    22:00 +15°C° 0 mm 2 mps 643 mmHg 67%
    23:00 +15°C° 0 mm 2 mps 643 mmHg 69%

    Tomorrow, 27 September, Wednesday

    Time Temperature Precipitation Wind Pressure Humidity
    00:00 +15°C° 0 mm 2 mps 643 mmHg 72%
    01:00 +15°C° 0.1 mm 2 mps 643 mmHg 73%
    02:00 +15°C° 0.1 mm 2 mps 642 mmHg 74%
    03:00 +14°C° 0.1 mm 1 mps 642 mmHg 74%
    04:00 +14°C° 0.1 mm 1 mps 642 mmHg 74%
    05:00 +13°C° 0.1 mm 1 mps 642 mmHg 74%
    06:00 +13°C° 0.1 mm 1 mps 642 mmHg 74%
    07:00 +15°C° 0.1 mm 1 mps 642 mmHg 66%
    08:00 +18°C° 0.1 mm 1 mps 643 mmHg 57%
    09:00 +19°C° 0.1 mm 2 mps 643 mmHg 48%
    10:00 +20°C° 0.1 mm 2 mps 643 mmHg 44%
    11:00 +21°C° 0.1 mm 2 mps 643 mmHg 40%
    12:00 +22°C° 0.1 mm 3 mps 643 mmHg 37%
    13:00 +22°C° 0.1 mm 3 mps 643 mmHg 37%
    14:00 +22°C° 0.1 mm 3 mps 643 mmHg 37%
    15:00 +24°C° 0.1 mm 3 mps 642 mmHg 37%
    16:00 +21°C° 0.2 mm 3 mps 642 mmHg 44%
    17:00 +19°C° 0.2 mm 3 mps 641 mmHg 52%
    18:00 +17°C° 0.2 mm 3 mps 641 mmHg 59%
    19:00 +16°C° 0.2 mm 3 mps 641 mmHg 64%
    20:00 +16°C° 0.2 mm 3 mps 641 mmHg 69%
    21:00 +14°C° 0.2 mm 3 mps 641 mmHg 74%
    22:00 +14°C° 0.1 mm 2 mps 641 mmHg 76%
    23:00 +14°C° 0.1 mm 2 mps 641 mmHg 77%

    Day after tomorrow, 28 September, Thursday

    Time Temperature Precipitation Wind Pressure Humidity
    00:00 +13°C° 0.1 mm 2 mps 641 mmHg 79%
    01:00 +13°C° 0.1 mm 2 mps 641 mmHg 79%
    02:00 +13°C° 0.1 mm 2 mps 641 mmHg 80%
    03:00 +12°C° 0.1 mm 1 mps 641 mmHg 80%
    04:00 +12°C° 0.1 mm 1 mps 641 mmHg 80%
    05:00 +12°C° 0.1 mm 1 mps 641 mmHg 80%
    06:00 +12°C° 0.1 mm 1 mps 641 mmHg 80%
    07:00 +13°C° 0.1 mm 1 mps 641 mmHg 74%
    08:00 +15°C° 0.1 mm 1 mps 642 mmHg 67%
    09:00 +16°C° 0.1 mm 1 mps 643 mmHg 61%
    10:00 +18°C° 0.4 mm 1 mps 643 mmHg 59%
    11:00 +18°C° 0.4 mm 2 mps 643 mmHg 56%
    12:00 +18°C° 0.4 mm 2 mps 643 mmHg 54%
    13:00 +18°C° 0.6 mm 2 mps 643 mmHg 54%
    14:00 +18°C° 0.6 mm 2 mps 643 mmHg 55%
    15:00 +18°C° 0.6 mm 2 mps 643 mmHg 55%
    16:00 +17°C° 0.3 mm 3 mps 643 mmHg 60%
    17:00 +16°C° 0.3 mm 3 mps 643 mmHg 66%
    18:00 +14°C° 0.3 mm 4 mps 642 mmHg 71%
    19:00 +13°C° 0.1 mm 3 mps 643 mmHg 73%
    20:00 +12°C° 0.1 mm 3 mps 643 mmHg 74%
    21:00 +11°C° 0.1 mm 3 mps 644 mmHg 76%
    22:00 +11°C° 0.1 mm 3 mps 644 mmHg 76%
    23:00 +11°C° 0.1 mm 3 mps 644 mmHg 77%

    29 September, Friday

    Time Temperature Precipitation Wind Pressure Humidity
    00:00 +11°C° 0.1 mm 3 mps 644 mmHg 77%
    01:00 +10°C° 0.1 mm 3 mps 644 mmHg 77%
    02:00 +10°C° 0.1 mm 2 mps 644 mmHg 78%
    03:00 +10°C° 0.1 mm 2 mps 644 mmHg 79%
    04:00 +10°C° 0 mm 2 mps 644 mmHg 79%
    05:00 +9°C° 0 mm 2 mps 644 mmHg 80%
    06:00 +9°C° 0 mm 2 mps 644 mmHg 80%
    07:00 +10°C° 0 mm 2 mps 644 mmHg 75%
    08:00 +12°C° 0 mm 2 mps 645 mmHg 70%
    09:00 +13°C° 0 mm 2 mps 645 mmHg 64%
    10:00 +14°C° 0 mm 2 mps 645 mmHg 61%
    11:00 +15°C° 0 mm 2 mps 645 mmHg 58%
    12:00 +16°C° 0 mm 3 mps 645 mmHg 55%
    13:00 +16°C° 0 mm 3 mps 645 mmHg 54%
    14:00 +17°C° 0 mm 3 mps 645 mmHg 53%
    15:00 +17°C° 0 mm 3 mps 644 mmHg 53%
    16:00 +16°C° 0 mm 3 mps 644 mmHg 58%
    17:00 +13°C° 0 mm 3 mps 644 mmHg 63%
    18:00 +12°C° 0 mm 3 mps 644 mmHg 68%
    19:00 +12°C° 0.1 mm 3 mps 644 mmHg 70%
    20:00 +11°C° 0.1 mm 3 mps 644 mmHg 72%
    21:00 +11°C° 0.1 mm 3 mps 644 mmHg 74%
    22:00 +11°C° 0.3 mm 3 mps 644 mmHg 74%
    23:00 +10°C° 0.3 mm 2 mps 643 mmHg 75%

    30 September, Saturday

    Time Temperature Precipitation Wind Pressure Humidity
    00:00 +10°C° 0.3 mm 2 mps 643 mmHg 75%
    01:00 +10°C° 0.2 mm 2 mps 643 mmHg 77%
    02:00 +10°C° 0.2 mm 2 mps 642 mmHg 79%
    03:00 +9°C° 0.2 mm 2 mps 642 mmHg 80%
    04:00 +9°C° 0.1 mm 2 mps 642 mmHg 80%
    05:00 +10°C° 0.1 mm 1 mps 642 mmHg 80%
    06:00 +10°C° 0.1 mm 1 mps 642 mmHg 80%
    07:00 +12°C° 0 mm 2 mps 642 mmHg 72%
    08:00 +13°C° 0 mm 2 mps 642 mmHg 64%
    09:00 +15°C° 0 mm 2 mps 643 mmHg 56%
    10:00 +16°C° 0 mm 3 mps 643 mmHg 53%
    11:00 +17°C° 0 mm 3 mps 643 mmHg 50%
    12:00 +18°C° 0 mm 3 mps 642 mmHg 47%
    13:00 +18°C° 0 mm 3 mps 642 mmHg 47%
    14:00 +18°C° 0 mm 3 mps 642 mmHg 48%
    15:00 +18°C° 0 mm 3 mps 641 mmHg 48%
    16:00 +17°C° 0.1 mm 2 mps 641 mmHg 52%
    17:00 +15°C° 0.1 mm 2 mps 640 mmHg 56%
    18:00 +14°C° 0.1 mm 1 mps 640 mmHg 60%
    19:00 +14°C° 0.1 mm 1 mps 640 mmHg 63%
    20:00 +13°C° 0.1 mm 1 mps 640 mmHg 65%
    21:00 +13°C° 0.1 mm 1 mps 640 mmHg 68%
    22:00 +13°C° 0.1 mm 1 mps 640 mmHg 68%
    23:00 +12°C° 0.1 mm 1 mps 640 mmHg 69%

    1 October, Sunday

    Time Temperature Precipitation Wind Pressure Humidity
    00:00 +12°C° 0.1 mm 1 mps 640 mmHg 70%
    01:00 +11°C° 0 mm 1 mps 640 mmHg 70%
    02:00 +11°C° 0 mm 1 mps 639 mmHg 71%
    03:00 +11°C° 0 mm 1 mps 639 mmHg 72%
    04:00 +10°C° 0 mm 1 mps 639 mmHg 71%
    05:00 +10°C° 0 mm 1 mps 639 mmHg 71%
    06:00 +10°C° 0 mm 1 mps 640 mmHg 71%
    07:00 +12°C° 0 mm 1 mps 640 mmHg 63%
    08:00 +15°C° 0 mm 2 mps 641 mmHg 56%
    09:00 +17°C° 0 mm 2 mps 642 mmHg 48%
    10:00 +18°C° 0 mm 2 mps 642 mmHg 44%
    11:00 +19°C° 0 mm 3 mps 642 mmHg 41%
    12:00 +20°C° 0 mm 3 mps 642 mmHg 37%
    13:00 +20°C° 0 mm 3 mps 642 mmHg 37%
    14:00 +20°C° 0 mm 3 mps 641 mmHg 36%
    15:00 +21°C° 0 mm 3 mps 641 mmHg 36%
    16:00 +19°C° 0 mm 3 mps 641 mmHg 41%
    17:00 +17°C° 0 mm 2 mps 641 mmHg 47%
    18:00 +16°C° 0 mm 1 mps 640 mmHg 52%
    19:00 +15°C° 0 mm 1 mps 641 mmHg 55%
    20:00 +15°C° 0 mm 2 mps 641 mmHg 59%
    21:00 +14°C° 0 mm 2 mps 641 mmHg 62%
    22:00 +14°C° 0 mm 2 mps 641 mmHg 64%
    23:00 +13°C° 0 mm 1 mps 641 mmHg 66%
    Show more